Weather History for Fountain Dale, PA

Change the Weather History Date:

Wednesday, August 7, 2013

  Actual Average (KHGR) Record (KHGR)
Temperature  
Mean Temperature 78 °F -  
Max Temperature 88 °F 82 °F 96 °F (2001)
Min Temperature 69 °F 63 °F 53 °F (1997)
Cooling Degree Days 14    
Growing Degree Days 28 (Base 50)    
Moisture  
Dew Point 67 °F    
Average Humidity 75    
Maximum Humidity 83    
Minimum Humidity 55    
Precipitation  
Precipitation 0.06 in - - ()
Sea Level Pressure  
Sea Level Pressure 30.04 in    
Wind  
Wind Speed 0 mph (NE)    
Max Wind Speed 7 mph    
Max Gust Speed -    
Visibility 4 miles    
Events Rain , Thunderstorm    
Averages and records for this station are not official NWS values.
T = Trace of Precipitation, MM = Missing Value Source: NWS Daily Summary

Daily Weather History Graph

Daily Weather History Graph

Search for Another Location

Airport:

Trip Planner

Search our weather history database for the weather conditions in past years. The results will help you decide how hot, cold, wet, or windy it might be!

Date:

Astronomy

Aug. 07, 2013 Rise Set
Actual Time 6:14 AM EDT 8:15 PM EDT
Civil Twilight 5:44 AM EDT 8:45 PM EDT
Nautical Twilight 5:08 AM EDT 9:21 PM EDT
Astronomical Twilight 4:29 AM EDT 10:00 PM EDT
Moon 7:00 AM EDT (8/7) 8:22 PM EDT (8/7)
Length of Visible Light 15h 00m
Length of Day
14h 01m
New Moon, 1% of the Moon is Illuminated
Aug 7
New Moon
Aug 14
First Quarter
Aug 20
Full
Aug 28
Last Quarter
Sep 5
New

Hourly Weather History & Observations

Time (EDT) Temp. Heat Index Dew Point Humidity Pressure Visibility Wind Dir Wind Speed Gust Speed Precip Events Conditions
12:53 AM 71.1 °F - 64.0 °F 78% 30.06 in 5.0 mi Calm Calm - N/A   Haze
1:11 AM 71.6 °F - 64.4 °F 78% 30.08 in 5.0 mi Calm Calm - N/A   Haze
2:18 AM 69.8 °F - 64.4 °F 83% 30.07 in 2.5 mi Calm Calm - N/A   Haze
2:32 AM 69.8 °F - 64.4 °F 83% 30.07 in 4.0 mi Calm Calm - N/A   Haze
2:53 AM 70.0 °F - 64.0 °F 81% 30.05 in 3.0 mi Calm Calm - N/A   Haze
3:00 AM 69.8 °F - 64.4 °F 83% 30.08 in 2.5 mi Calm Calm - N/A   Haze
3:38 AM 71.6 °F - 64.4 °F 78% 30.08 in 3.0 mi Calm Calm - N/A   Haze
3:53 AM 71.1 °F - 64.0 °F 78% 30.04 in 3.0 mi Calm Calm - N/A   Haze
4:07 AM 69.8 °F - 64.4 °F 83% 30.07 in 1.8 mi Calm Calm - N/A   Haze
4:18 AM 69.8 °F - 64.4 °F 83% 30.08 in 1.2 mi Calm Calm - N/A   Haze
4:53 AM 70.0 °F - 64.0 °F 81% 30.05 in 1.5 mi NE 3.5 mph - N/A   Haze
5:24 AM 69.8 °F - 64.4 °F 83% 30.07 in 0.8 mi Calm Calm - 0.00 in Rain Light Rain
5:32 AM 69.8 °F - 64.4 °F 83% 30.07 in 1.2 mi Calm Calm - 0.00 in   Haze
6:53 AM 70.0 °F - 64.0 °F 81% 30.04 in 0.8 mi Calm Calm - 0.01 in   Haze
7:53 AM 71.1 °F - 64.9 °F 81% 30.04 in 0.5 mi Calm Calm - 0.01 in   Haze
8:25 AM 71.6 °F - 64.4 °F 78% 30.06 in 1.2 mi Calm Calm - 0.02 in   Haze
8:53 AM 72.0 °F - 66.0 °F 81% 30.04 in 1.8 mi Calm Calm - 0.02 in   Haze
9:02 AM 71.6 °F - 66.2 °F 83% 30.07 in 2.0 mi Calm Calm - N/A   Haze
9:43 AM 71.6 °F - 66.2 °F 83% 30.07 in 3.0 mi Calm Calm - N/A   Haze
9:53 AM 72.0 °F - 66.0 °F 81% 30.04 in 3.0 mi Variable 3.5 mph - N/A   Haze
10:08 AM 71.6 °F - 66.2 °F 83% 30.07 in 2.5 mi Calm Calm - N/A   Haze
11:40 AM 73.4 °F - 66.2 °F 78% 30.08 in 1.5 mi Calm Calm - N/A   Haze
11:53 AM 73.0 °F - 66.9 °F 81% 30.05 in 1.8 mi Calm Calm - N/A   Haze
12:07 PM 73.4 °F - 66.2 °F 78% 30.07 in 2.5 mi Calm Calm - N/A   Haze
12:19 PM 73.4 °F - 66.2 °F 78% 30.07 in 3.0 mi Calm Calm - N/A   Haze
12:53 PM 75.0 °F - 66.9 °F 76% 30.04 in 4.0 mi Calm Calm - N/A   Haze
1:29 PM 75.2 °F - 68.0 °F 78% 30.06 in 6.0 mi Calm Calm - N/A   Haze
1:53 PM 77.0 °F - 68.0 °F 74% 30.03 in 7.0 mi Variable 3.5 mph - N/A   Overcast
2:38 PM 78.8 °F - 69.8 °F 74% 30.04 in 9.0 mi Calm Calm - N/A   Overcast
2:53 PM 82.0 °F 84.9 °F 68.0 °F 62% 30.01 in 10.0 mi Calm Calm - N/A   Overcast
3:03 PM 84.2 °F 87.3 °F 68.0 °F 58% 30.04 in 10.0 mi Variable 3.5 mph - N/A   Overcast
3:53 PM 84.9 °F 88.8 °F 69.1 °F 59% 29.98 in 10.0 mi WSW 4.6 mph - N/A   Mostly Cloudy
4:53 PM 86.0 °F 90.1 °F 69.1 °F 57% 29.97 in 10.0 mi Calm Calm - N/A   Mostly Cloudy
5:53 PM 88.0 °F 92.9 °F 70.0 °F 55% 29.96 in 10.0 mi NNE 3.5 mph - N/A   Partly Cloudy
6:53 PM 84.0 °F 89.0 °F 71.1 °F 65% 29.97 in 9.0 mi Calm Calm - N/A   Overcast
7:06 PM 82.4 °F 87.2 °F 71.6 °F 70% 30.01 in 9.0 mi Calm Calm - N/A   Mostly Cloudy
7:53 PM 82.0 °F 86.3 °F 71.1 °F 69% 29.98 in 7.0 mi Calm Calm - 0.00 in   Mostly Cloudy
8:05 PM 82.4 °F 87.2 °F 71.6 °F 70% 30.03 in 7.0 mi Calm Calm - N/A   Overcast
8:16 PM 82.4 °F 87.2 °F 71.6 °F 70% 30.03 in 7.0 mi Calm Calm - 0.01 in Rain , Thunderstorm Light Thunderstorms and Rain
8:53 PM 81.0 °F 84.9 °F 71.1 °F 72% 29.99 in 4.0 mi Calm Calm - 0.02 in Rain Light Rain
9:00 PM 80.6 °F 84.6 °F 71.6 °F 74% 30.03 in 3.0 mi Calm Calm - 0.02 in Rain , Thunderstorm Light Thunderstorms and Rain
9:07 PM 80.6 °F 84.6 °F 71.6 °F 74% 30.03 in 2.5 mi Calm Calm - 0.03 in Rain , Thunderstorm Light Thunderstorms and Rain
9:16 PM 80.6 °F 84.6 °F 71.6 °F 74% 30.04 in 2.5 mi Calm Calm - 0.05 in Rain Light Rain
9:24 PM 80.6 °F 84.6 °F 71.6 °F 74% 30.04 in 3.0 mi Calm Calm - 0.06 in Rain Light Rain
9:51 PM 80.6 °F 83.9 °F 69.8 °F 70% 30.04 in 4.0 mi Calm Calm - 0.07 in Rain Light Rain
10:01 PM 80.6 °F 83.9 °F 69.8 °F 70% 30.05 in 4.0 mi Calm Calm - 0.00 in Rain Light Rain
10:30 PM 80.6 °F 83.9 °F 69.8 °F 70% 30.04 in 2.5 mi Calm Calm - 0.00 in   Haze
10:41 PM 80.6 °F 83.9 °F 69.8 °F 70% 30.04 in 0.8 mi Calm Calm - 0.00 in   Haze
10:53 PM 77.0 °F - 66.9 °F 71% 30.01 in 6.0 mi ENE 6.9 mph - 0.00 in   Haze
11:03 PM 77.0 °F - 66.2 °F 69% 30.05 in 9.0 mi NE 6.9 mph - N/A   Overcast
11:27 PM 75.2 °F - 64.4 °F 69% 30.06 in 10.0 mi Variable 3.5 mph - N/A   Overcast
11:53 PM 75.0 °F - 64.9 °F 71% 30.01 in 10.0 mi Calm Calm - N/A   Overcast